Location: Leiter
(44.7178°N, 106.2687°W)
Time: 22:19:19
(UTC+00:00)

CUBESAT XI-V - Pass Details

Date: 01 July 2022
Orbit: 668 x 690 km, 98.1° (Epoch: 15 August)

Event Time Altitude Azimuth Distance (km) Brightness Sun altitude
Exits shadow 07:52:59 14° 118° (ESE) 1,840 ? -21.4°
Maximum altitude 07:56:04 28° 66° (ENE) 1,262 ? -21.3°
Drops below altitude 10° 07:59:58 10° 8° (N) 2,109 ? -21.2°
Sets 08:02:26 0° 357° (N) 3,026 ? -21.1°
